Tracking 25693 objects as of 1-Jul-2022
HD Live streaming from Space Station
objects crossing your sky now

SPACEBEE-117

Track SPACEBEE-117 now!
10-day predictions


NORAD ID: 52022
Int'l Code: 2022-026Q
Perigee: 508.0 km
Apogee: 543.2 km
Inclination: 97.5 °
Period: 95.0 minutes
Semi major axis: 6896 km
RCS: Unknown
Launch date: March 15, 2022
Source: United States (US)
Launch site: Kodiak Island, Alaska (KODAK)
aabbcc
Your satellite tracking list
Your tracking list is empty




NASA's NSSDC Master Catalog

Two Line Element Set (TLE):
1 52022U 22026Q   22181.54594388  .00003841  00000-0  20294-3 0  9999
2 52022  97.5026 181.2946 0025493 225.6697 134.2446 15.15825316 16045
Source of the keplerian elements: AFSPC